Location: Newark
(54.3386°S, 169.8415°W)
Time: 02:06:42
(UTC+00:00)

A-11 Canister half - All Passes

Search period start: 21 October 2019 00:00
Search period end: 31 October 2019 00:00
Orbit: 1514 x 1686 km, 47.2° (Epoch: 18 October)

Date Brightness Start Highest point End Pass type
(mag) Time Alt. Az. Time Alt. Az. Time Alt. Az.
21 Oct - 00:25:05 10° NNW 00:32:34 27° NE 00:40:15 10° E daylight
21 Oct - 02:26:48 10° NW 02:35:53 51° NNE 02:45:18 10° E daylight
21 Oct - 04:30:35 10° W 04:39:58 57° N 04:49:42 10° ENE daylight
21 Oct - 06:35:01 10° W 06:43:50 39° NNW 06:52:52 10° NNE visible
21 Oct - 08:41:15 10° W 08:46:38 16° NW 08:52:05 10° NNW visible
22 Oct - 00:02:29 10° N 00:09:45 26° NE 00:17:14 10° E daylight
22 Oct - 02:04:00 10° NW 02:13:01 50° NNE 02:22:22 10° E daylight
22 Oct - 04:07:42 10° W 04:17:04 57° N 04:26:47 10° ENE daylight
22 Oct - 06:12:06 10° W 06:20:58 40° NNW 06:30:04 10° NE daylight
22 Oct - 08:18:06 10° W 08:23:51 17° NW 08:29:40 10° NNW visible
22 Oct - 23:39:53 10° N 23:46:57 25° NE 23:54:13 10° E daylight
23 Oct - 01:41:12 10° NW 01:50:09 49° NNE 01:59:26 10° E daylight
23 Oct - 03:44:50 10° W 03:54:11 58° N 04:03:52 10° ENE daylight
23 Oct - 05:49:11 10° W 05:58:06 42° NNW 06:07:16 10° NE daylight
23 Oct - 07:54:58 10° W 08:01:03 18° NW 08:07:13 10° N visible
23 Oct - 23:17:19 10° N 23:24:10 23° NE 23:31:11 10° E daylight
24 Oct - 01:18:25 10° NW 01:27:17 47° NNE 01:36:30 10° E daylight
24 Oct - 03:21:58 10° WNW 03:31:17 58° N 03:40:57 10° ENE daylight
24 Oct - 05:26:18 10° W 05:35:14 43° NNW 05:44:27 10° NE daylight
24 Oct - 07:31:54 10° W 07:38:15 19° NW 07:44:42 10° N visible
24 Oct - 22:54:46 10° N 23:01:23 22° NE 23:08:08 10° E daylight
25 Oct - 00:55:37 10° NW 01:04:26 46° NNE 01:13:33 10° E daylight
25 Oct - 02:59:06 10° WNW 03:08:24 58° N 03:18:03 10° ENE daylight
25 Oct - 05:03:24 10° W 05:12:22 44° NNW 05:21:38 10° NE daylight
25 Oct - 07:08:51 10° W 07:15:27 21° NW 07:22:10 10° N visible
25 Oct - 22:32:15 10° N 22:38:36 21° NE 22:45:05 10° E daylight
26 Oct - 00:32:51 10° NW 00:41:34 45° NNE 00:50:37 10° E daylight
26 Oct - 02:36:15 10° WNW 02:45:31 58° N 02:55:07 10° ENE daylight
26 Oct - 04:40:30 10° W 04:49:31 45° NNW 04:58:47 10° NE daylight
26 Oct - 06:45:49 10° W 06:52:38 22° NW 06:59:36 10° N visible
26 Oct - 22:09:46 10° N 22:15:50 20° NE 22:22:00 10° E daylight
27 Oct - 00:10:05 10° NW 00:18:44 43° NNE 00:27:41 10° E daylight
27 Oct - 02:13:24 10° WNW 02:22:38 58° N 02:32:12 10° ENE daylight
27 Oct - 04:17:37 10° W 04:26:38 46° NNW 04:35:57 10° NE daylight
27 Oct - 06:22:48 10° W 06:29:50 23° NW 06:37:01 10° N daylight
27 Oct - 21:47:18 10° N 21:53:03 18° NE 21:58:54 10° E daylight
27 Oct - 23:47:19 10° NW 23:55:53 42° NNE 00:04:44 10° E daylight
28 Oct - 01:50:33 10° WNW 01:59:45 58° N 02:09:17 10° ENE daylight
28 Oct - 03:54:44 10° W 04:03:46 47° NNW 04:13:05 10° NE daylight
28 Oct - 05:59:48 10° W 06:07:01 24° NW 06:14:24 10° N daylight
28 Oct - 21:24:53 10° NNE 21:30:17 17° NE 21:35:46 10° E daylight
28 Oct - 23:24:34 10° NW 23:33:03 41° NNE 23:41:48 10° E daylight
29 Oct - 01:27:42 10° WNW 01:36:51 57° N 01:46:21 10° ENE daylight
29 Oct - 03:31:51 10° W 03:40:54 48° NNW 03:50:14 10° NE daylight
29 Oct - 05:36:49 10° W 05:44:13 25° NW 05:51:45 10° N daylight
29 Oct - 21:02:31 10° NNE 21:07:31 16° NE 21:12:36 10° E daylight
29 Oct - 23:01:49 10° NW 23:10:13 39° NNE 23:18:51 10° E daylight
30 Oct - 01:04:51 10° WNW 01:13:59 57° N 01:23:26 10° E daylight
30 Oct - 03:08:58 10° W 03:18:01 49° NNW 03:27:23 10° NE daylight
30 Oct - 05:13:51 10° W 05:21:23 26° NW 05:29:06 10° N daylight
30 Oct - 20:40:12 10° NNE 20:44:46 15° NE 20:49:22 10° E daylight
30 Oct - 22:39:05 10° NNW 22:47:23 38° NNE 22:55:55 10° E daylight
